• In Russia
  • List of Countries
  • For 7 days
  • Water Temperature
  • Satellite Maps
  • Weather Map
  • Weather Widgets
  • user-avatar
    Login

    Hourly Weather Albany

    Today, 29 April, Saturday

    Time Temperature Precipitation Wind Pressure Humidity
    00:00 +15°C° 0 mm 1 mps 765 mmHg 93%
    01:00 +14°C° 0 mm 1 mps 765 mmHg 93%
    02:00 +14°C° 0 mm 1 mps 765 mmHg 93%
    03:00 +14°C° 0 mm 1 mps 765 mmHg 91%
    04:00 +13°C° 0 mm 1 mps 764 mmHg 90%
    05:00 +13°C° 0 mm 1 mps 764 mmHg 89%
    06:00 +14°C° 0 mm 1 mps 764 mmHg 83%
    07:00 +15°C° 0 mm 1 mps 764 mmHg 78%
    08:00 +16°C° 0 mm 2 mps 764 mmHg 72%
    09:00 +19°C° 0 mm 2 mps 764 mmHg 61%
    10:00 +21°C° 0 mm 2 mps 764 mmHg 50%
    11:00 +25°C° 0 mm 1 mps 764 mmHg 40%
    12:00 +25°C° 0 mm 1 mps 763 mmHg 39%
    13:00 +26°C° 0 mm 1 mps 763 mmHg 37%
    14:00 +26°C° 0 mm 1 mps 762 mmHg 36%
    15:00 +25°C° 0 mm 1 mps 762 mmHg 44%
    16:00 +23°C° 0 mm 1 mps 762 mmHg 52%
    17:00 +21°C° 0 mm 1 mps 761 mmHg 60%
    18:00 +19°C° 0 mm 1 mps 762 mmHg 67%
    19:00 +18°C° 0 mm 1 mps 762 mmHg 74%
    20:00 +15°C° 0 mm 1 mps 762 mmHg 80%
    21:00 +15°C° 0 mm 2 mps 762 mmHg 81%
    22:00 +15°C° 0 mm 2 mps 761 mmHg 82%
    23:00 +16°C° 0 mm 2 mps 761 mmHg 82%

    Tomorrow, 30 April, Sunday

    Time Temperature Precipitation Wind Pressure Humidity
    00:00 +16°C° 0 mm 3 mps 761 mmHg 84%
    01:00 +16°C° 0 mm 3 mps 761 mmHg 85%
    02:00 +15°C° 0 mm 4 mps 760 mmHg 86%
    03:00 +15°C° 0 mm 4 mps 760 mmHg 88%
    04:00 +15°C° 0 mm 4 mps 760 mmHg 89%
    05:00 +15°C° 0 mm 5 mps 760 mmHg 90%
    06:00 +16°C° 0 mm 5 mps 760 mmHg 88%
    07:00 +17°C° 0 mm 6 mps 760 mmHg 87%
    08:00 +17°C° 0 mm 6 mps 760 mmHg 85%
    09:00 +19°C° 0.2 mm 6 mps 761 mmHg 83%
    10:00 +18°C° 0.2 mm 7 mps 761 mmHg 82%
    11:00 +18°C° 0.2 mm 7 mps 761 mmHg 80%
    12:00 +18°C° 0.1 mm 7 mps 761 mmHg 77%
    13:00 +17°C° 0.1 mm 6 mps 761 mmHg 73%
    14:00 +17°C° 0.1 mm 6 mps 761 mmHg 70%
    15:00 +16°C° 0 mm 6 mps 762 mmHg 68%
    16:00 +16°C° 0 mm 5 mps 762 mmHg 67%
    17:00 +15°C° 0 mm 5 mps 763 mmHg 65%
    18:00 +15°C° 0 mm 4 mps 763 mmHg 66%
    19:00 +14°C° 0 mm 4 mps 764 mmHg 66%
    20:00 +14°C° 0 mm 3 mps 764 mmHg 66%
    21:00 +14°C° 0 mm 3 mps 765 mmHg 67%
    22:00 +13°C° 0 mm 3 mps 765 mmHg 68%
    23:00 +14°C° 0 mm 2 mps 765 mmHg 69%

    Day after tomorrow, 1 May, Monday

    Time Temperature Precipitation Wind Pressure Humidity
    00:00 +14°C° 0 mm 2 mps 765 mmHg 70%
    01:00 +13°C° 0 mm 2 mps 765 mmHg 71%
    02:00 +13°C° 0 mm 2 mps 765 mmHg 73%
    03:00 +13°C° 0 mm 2 mps 765 mmHg 73%
    04:00 +13°C° 0 mm 2 mps 765 mmHg 73%
    05:00 +13°C° 0 mm 2 mps 765 mmHg 73%
    06:00 +13°C° 0 mm 2 mps 766 mmHg 72%
    07:00 +14°C° 0 mm 2 mps 766 mmHg 71%
    08:00 +14°C° 0 mm 2 mps 766 mmHg 69%
    09:00 +15°C° 0 mm 2 mps 766 mmHg 66%
    10:00 +14°C° 0 mm 3 mps 767 mmHg 63%
    11:00 +16°C° 0 mm 3 mps 767 mmHg 59%
    12:00 +16°C° 0 mm 3 mps 766 mmHg 60%
    13:00 +16°C° 0 mm 3 mps 766 mmHg 60%
    14:00 +16°C° 0 mm 3 mps 766 mmHg 61%
    15:00 +16°C° 0 mm 3 mps 766 mmHg 63%
    16:00 +14°C° 0 mm 3 mps 766 mmHg 65%
    17:00 +14°C° 0 mm 4 mps 766 mmHg 67%
    18:00 +13°C° 0 mm 4 mps 766 mmHg 71%
    19:00 +13°C° 0 mm 4 mps 767 mmHg 75%
    20:00 +12°C° 0 mm 4 mps 767 mmHg 79%
    21:00 +12°C° 0 mm 3 mps 767 mmHg 81%
    22:00 +12°C° 0 mm 3 mps 767 mmHg 83%
    23:00 +11°C° 0 mm 3 mps 767 mmHg 85%

    2 May, Tuesday

    Time Temperature Precipitation Wind Pressure Humidity
    00:00 +11°C° 0 mm 3 mps 767 mmHg 86%
    01:00 +11°C° 0 mm 3 mps 767 mmHg 87%
    02:00 +11°C° 0 mm 3 mps 766 mmHg 88%
    03:00 +11°C° 0 mm 3 mps 766 mmHg 89%
    04:00 +10°C° 0 mm 3 mps 766 mmHg 90%
    05:00 +10°C° 0 mm 3 mps 766 mmHg 90%
    06:00 +11°C° 0 mm 3 mps 766 mmHg 86%
    07:00 +11°C° 0 mm 4 mps 767 mmHg 82%
    08:00 +12°C° 0 mm 4 mps 767 mmHg 78%
    09:00 +14°C° 0 mm 4 mps 767 mmHg 70%
    10:00 +15°C° 0 mm 4 mps 767 mmHg 61%
    11:00 +18°C° 0 mm 4 mps 766 mmHg 52%
    12:00 +19°C° 0 mm 4 mps 766 mmHg 50%
    13:00 +20°C° 0 mm 4 mps 765 mmHg 47%
    14:00 +20°C° 0 mm 4 mps 764 mmHg 45%
    15:00 +20°C° 0 mm 4 mps 764 mmHg 49%
    16:00 +19°C° 0 mm 4 mps 764 mmHg 52%
    17:00 +18°C° 0 mm 4 mps 764 mmHg 56%
    18:00 +16°C° 0 mm 5 mps 764 mmHg 58%
    19:00 +16°C° 0 mm 5 mps 765 mmHg 61%
    20:00 +15°C° 0 mm 6 mps 765 mmHg 64%
    21:00 +15°C° 0 mm 6 mps 765 mmHg 65%
    22:00 +14°C° 0 mm 6 mps 764 mmHg 66%
    23:00 +14°C° 0 mm 6 mps 764 mmHg 66%

    3 May, Wednesday

    Time Temperature Precipitation Wind Pressure Humidity
    00:00 +14°C° 0 mm 6 mps 764 mmHg 65%
    01:00 +14°C° 0 mm 6 mps 763 mmHg 64%
    02:00 +13°C° 0 mm 6 mps 763 mmHg 63%
    03:00 +13°C° 0 mm 5 mps 763 mmHg 64%
    04:00 +13°C° 0 mm 5 mps 762 mmHg 64%
    05:00 +13°C° 0 mm 5 mps 762 mmHg 64%
    06:00 +14°C° 0 mm 5 mps 762 mmHg 62%
    07:00 +14°C° 0 mm 6 mps 762 mmHg 60%
    08:00 +15°C° 0 mm 6 mps 762 mmHg 59%
    09:00 +17°C° 0 mm 6 mps 761 mmHg 53%
    10:00 +20°C° 0 mm 6 mps 761 mmHg 48%
    11:00 +22°C° 0 mm 6 mps 760 mmHg 42%
    12:00 +23°C° 0 mm 5 mps 760 mmHg 40%
    13:00 +26°C° 0 mm 5 mps 759 mmHg 38%
    14:00 +27°C° 0 mm 5 mps 758 mmHg 35%
    15:00 +26°C° 0 mm 5 mps 758 mmHg 38%
    16:00 +25°C° 0 mm 5 mps 758 mmHg 40%
    17:00 +23°C° 0 mm 4 mps 757 mmHg 43%
    18:00 +22°C° 0 mm 5 mps 757 mmHg 43%
    19:00 +22°C° 0 mm 5 mps 757 mmHg 42%
    20:00 +22°C° 0 mm 5 mps 757 mmHg 42%
    21:00 +22°C° 0 mm 5 mps 757 mmHg 42%
    22:00 +22°C° 0 mm 5 mps 756 mmHg 42%
    23:00 +21°C° 0 mm 6 mps 756 mmHg 42%

    4 May, Thursday

    Time Temperature Precipitation Wind Pressure Humidity
    00:00 +21°C° 0 mm 5 mps 756 mmHg 47%
    01:00 +21°C° 0 mm 5 mps 755 mmHg 52%
    02:00 +20°C° 0 mm 5 mps 755 mmHg 57%
    03:00 +20°C° 0 mm 5 mps 755 mmHg 63%
    04:00 +19°C° 0 mm 6 mps 755 mmHg 70%
    05:00 +19°C° 0 mm 6 mps 755 mmHg 76%
    06:00 +19°C° 0.4 mm 6 mps 755 mmHg 78%
    07:00 +17°C° 0.4 mm 7 mps 756 mmHg 81%
    08:00 +17°C° 0.4 mm 7 mps 756 mmHg 83%
    09:00 +17°C° 0.3 mm 7 mps 757 mmHg 82%
    10:00 +16°C° 0.3 mm 6 mps 757 mmHg 81%
    11:00 +16°C° 0.3 mm 6 mps 758 mmHg 79%
    12:00 +16°C° 0 mm 6 mps 758 mmHg 75%
    13:00 +16°C° 0 mm 6 mps 758 mmHg 70%
    14:00 +15°C° 0 mm 6 mps 758 mmHg 66%
    15:00 +15°C° 0 mm 6 mps 759 mmHg 64%
    16:00 +15°C° 0 mm 5 mps 759 mmHg 63%
    17:00 +15°C° 0 mm 5 mps 760 mmHg 61%
    18:00 +14°C° 0 mm 5 mps 760 mmHg 62%
    19:00 +14°C° 0 mm 4 mps 761 mmHg 63%
    20:00 +14°C° 0 mm 4 mps 762 mmHg 63%
    21:00 +13°C° 0 mm 4 mps 762 mmHg 65%
    22:00 +13°C° 0 mm 4 mps 762 mmHg 66%
    23:00 +12°C° 0 mm 3 mps 762 mmHg 68%
    Show more